Location: Maccacari
(45.1333°N, 11.1333°E)
Time: 03:35:41
(UTC+00:00)

Altair - Pass Details

Date: 29 January 2021
Orbit: 1501 x 1682 km, 47.2° (Epoch: 01 March)

Event Time Altitude Azimuth Distance (km) Brightness Sun altitude
Rises 07:03:56 0° 283° (WNW) 4,911 9.5 3.1°
Reaches altitude 10° 07:07:05 10° 284° (WNW) 3,934 9.1 3.6°
Maximum altitude 07:17:18 87° 13° (NNE) 1,689 7.9 5.1°
Drops below altitude 10° 07:27:28 10° 105° (ESE) 3,916 11.4 6.6°
Sets 07:30:35 0° 106° (ESE) 4,888 11.8 7.1°
